DW9371 Weather Reports


Display with metric or nautical units.
time (UTC)temp
F
wind
direction
speed
MPH
gust
MPH
rain 1hr
in
rain 24hr
in
rain mn
in
humidity
%
barometer
mb
20260510200604 51 338 1.0 5.0 0.00 0.00 0.00 3 1014.0
20260510200105 51 0 1.0 6.0 0.00 0.00 0.00 3 1014.0
20260510190604 51 52 1.0 3.0 0.00 0.00 0.00 3 1013.6
20260510190106 51 56 2.0 13.0 0.00 0.00 0.00 3 1013.6
20260510180604 51 65 2.0 13.0 0.00 0.00 0.00 3 1013.6
20260510170604 51 344 3.0 8.0 0.00 0.00 0.00 3 1013.9
20260510170106 51 339 3.0 16.0 0.00 0.00 0.00 3 1013.9
20260510160604 51 336 2.0 9.0 0.00 0.00 0.00 3 1014.4
20260510160106 51 18 4.0 13.0 0.00 0.00 0.00 3 1014.4
20260510150604 51 8 2.0 8.0 0.00 0.00 0.00 3 1014.9
20260510150106 51 50 5.0 14.0 0.00 0.00 0.00 3 1014.9
20260510140604 51 68 4.0 12.0 0.00 0.00 0.00 3 1015.4
20260510140106 51 59 5.0 16.0 0.00 0.00 0.00 3 1015.4
20260510130604 51 329 3.0 7.0 0.00 0.00 0.00 3 1015.4
20260510130106 51 12 4.0 15.0 0.00 0.00 0.00 3 1015.4
20260510120604 51 46 2.0 12.0 0.00 0.00 0.00 3 1015.8
20260510120106 51 14 4.0 14.0 0.00 0.00 0.00 3 1015.8
20260510110604 51 12 4.0 10.0 0.00 0.00 0.00 3 1016.4
20260510110106 51 48 3.0 16.0 0.00 0.00 0.00 3 1016.4
20260510100604 51 58 6.0 14.0 0.00 0.00 0.00 3 1016.8
20260510100106 51 58 4.0 20.0 0.00 0.00 0.00 3 1016.8
20260510090105 51 63 7.0 14.0 0.00 0.00 0.00 3 1017.0
20260510080603 51 161 3.0 12.0 0.00 0.00 0.00 3 1017.2
20260510080111 51 53 2.0 17.0 0.00 0.00 0.00 3 1017.2
20260510060603 51 0 3.0 7.0 0.00 0.00 0.00 3 1016.6
20260510050604 51 52 1.0 7.0 0.00 0.00 0.00 3 1016.9
20260510050105 51 59 1.0 8.0 0.00 0.00 0.00 3 1016.8
20260510040603 51 329 1.0 5.0 0.00 0.00 0.00 3 1016.9
20260510030604 51 41 1.0 3.0 0.00 0.00 0.00 3 1017.1
20260510030105 51 58 0.0 12.0 0.00 0.00 0.00 3 1017.2
20260510020603 51 244 1.0 7.0 0.00 0.00 0.00 3 1017.1
20260510020105 51 54 2.0 10.0 0.00 0.00 0.00 3 1017.0
20260510010105 51 61 2.0 6.0 0.00 0.00 0.00 3 1016.8
20260510000604 51 11 0.0 6.0 0.00 0.00 0.00 3 1016.9
20260510000105 51 9 0.0 5.0 0.00 0.00 0.00 3 1016.9
20260509230604 51 328 2.0 5.0 0.00 0.00 0.00 3 1016.6
20260509230106 51 350 2.0 6.0 0.00 0.00 0.00 3 1016.6
20260509220604 51 40 1.0 3.0 0.00 0.00 0.00 3 1016.2
20260509220106 51 327 1.0 6.0 0.00 0.00 0.00 3 1016.3
20260509210603 51 333 1.0 3.0 0.00 0.00 0.00 3 1016.0
20260509210106 51 333 1.0 6.0 0.00 0.00 0.00 3 1016.0